Regional Weather Roundup
Issued by NWS Wakefield, VA

Home | Current Version | Previous Version | Text Only | Print | Product List | Glossary Off
Versions: 1 2 3 4 5 6 7 8 9 10 11 12 13 14 15 16 17 18 19 20 21 22 23 24 25 26 27 28 29 30 31 32 33 34 35 36 37 38 39 40 41 42 43 44 45 46 47 48 49 50

000
ASUS41 KAKQ 190010
RWRAKQ

REGIONAL WEATHER ROUNDUP
NATIONAL WEATHER SERVICE WAKEFIELD VA
800 PM EDT THU SEP 18 2014

Note: "fair" indicates few or no clouds below 12,000 feet with no
significant weather and/or obstructions to visibility. * = Denotes
station may not report precipitation (e.g., rain,snow,etc.),
thunder or fog.

VAZ042-051-052>054-056-190100-
NORTHERN VIRGINIA

CITY           SKY/WX    TMP DP  RH WIND       PRES   REMARKS
WASH NATIONAL  PTCLDY    72  59  63 NE7       30.04R
DULLES         MOCLDY    67  51  56 NE5       30.04R
FORT BELVOIR   CLEAR     66  62  87 VRB1      30.04R
QUANTICO       CLEAR     68  62  81 CALM      30.04R
FREDERICKSBRG* CLOUDY    69  64  86 CALM      30.03R
STAFFORD*      MOCLDY    64  64 100 CALM      30.08R FOG
WARRENTON      PTCLDY    62  61  95 CALM      30.04R
CULPEPER*      PTCLDY    66  59  77 CALM      30.05R
MANASSAS*      CLOUDY    66  57  72 CALM      30.04R
LEESBURG*      CLEAR     64  55  72 CALM      30.05R
WINCHESTER     CLOUDY    64  50  59 CALM      30.06R
FRONT ROYAL*   CLOUDY    64  54  68 CALM      30.05R
LURAY*         PTCLDY    66  55  68 N6        30.05R
$$

VAZ048-049-060>072-079>083-190100-
CENTRAL AND SOUTH CENTRAL VIRGINIA...AND NORTH CENTRAL NORTH CAROLINA

CITY           SKY/WX    TMP DP  RH WIND       PRES   REMARKS
RICHMOND       MOCLDY    67  60  78 E3        30.03R
CHESTERFIELD*  CLOUDY   N/A N/A N/A CALM      30.04R
PETERSBURG*    CLOUDY    68  62  80 CALM      30.03R
HANOVER        CLOUDY    66  64  93 CALM      30.05R
TAPPAHANNOCK*  PTCLDY    63  61  91 CALM      30.04R FOG
CHARLOTTSVILLE CLOUDY    66  62  87 CALM      30.04R
ORANGE*        CLOUDY    64  61  88 CALM      30.06R
LOUISA*        CLOUDY    63  61  94 CALM      30.03R FOG
FARMVILLE*     CLOUDY    66  66 100 CALM      30.01R
CREWE*         CLOUDY    69  63  82 CALM      30.02R
FORT PICKETT*  CLOUDY    69  65  87 E3        30.02S
LUNENBURG*     CLOUDY    71  65  83 CALM      30.02R
SOUTH HILL*    CLOUDY    70  70 100 CALM      30.07R
LAWRENCEVILLE* CLOUDY    69  64  84 CALM      30.02R
ROANOKE RAPIDS CLOUDY    68  63  83 CALM      30.01R
RALEIGH        MOCLDY    73  60  63 VRB5      30.00R
$$

VAZ088>098-190100-
SOUTHEAST VIRGINIA

CITY           SKY/WX    TMP DP  RH WIND       PRES   REMARKS
NORFOLK        MOCLDY    69  55  60 E5        30.04R
VIRGINIA BEACH PTCLDY    67  54  63 E5        30.04R
NORFOLK NAVAL  MOCLDY    70  55  59 SE7       30.05R
WEST POINT*    CLOUDY    70  56  61 SE5       30.05R
NEWPORT NEWS   CLOUDY    73  55  53 E5        30.04R
LANGLEY AFB    CLOUDY    71  56  58 SE6       30.03R
FORT EUSTIS    CLOUDY    71  50  47 E6        30.02R
WILLIAMSBURG*  CLOUDY    72  59  64 CALM      30.04R
HR EXEC AP*    PTCLDY    66  55  68 SE6       30.06R
FRANKLIN*      CLOUDY    70  57  64 SE3       30.04R
WAKEFIELD      CLOUDY    69  57  65 CALM      30.03R
$$

VAZ020-022-025-037-045-190100-
WEST CENTRAL AND SOUTHWEST VIRGINIA

CITY           SKY/WX    TMP DP  RH WIND       PRES   REMARKS
STAUNTON*      CLOUDY    68  56  64 CALM      30.07R
HOT SPRINGS VA CLOUDY    58  38  46 E3        30.14R
LYNCHBURG      CLOUDY    65  62  90 CALM      30.04R
DANVILLE       CLOUDY    71  64  78 E3        30.02R
SOUTH BOSTON*  NOT AVBL
MARTINSVILLE   CLOUDY    68  67  96 CALM      30.05R
ROANOKE        CLOUDY    70  60  70 SE6       30.05R
BLACKSBURG     CLOUDY    64  61  88 CALM      30.08R FOG
DUBLIN*        CLOUDY    67  56  69 CALM      30.08R
MARION*        CLOUDY    63  56  80 CALM      30.11R
HILLSVILLE*    CLOUDY    63  57  81 CALM      30.08S
RICHLANDS*     PTCLDY    65  54  66 N3        30.08S
WISE*          CLOUDY    61  52  72 N5        30.10R
ABINGDON*      CLOUDY    67  55  65 E5        30.06S
$$

MDZ021>025-VAZ099-100-190100-
SOUTHERN MARYLAND AND THE DELMARVA PENINSULA

CITY           SKY/WX    TMP DP  RH WIND       PRES   REMARKS
PATUXENT RIVER PTCLDY    66  53  63 S3        30.02S
BAY BRIDGE APT   N/A     68  57  68 CALM      30.03R
LEONARDTOWN    PTCLDY    64  52  63 CALM      30.04S
DOVER          PTCLDY    66  56  70 SW5       30.02R
GEORGETOWN     CLOUDY    66  57  72 E8        30.05R
EASTON         MOCLDY    68  63  83 CALM      30.08R
CAMBRIDGE      CLOUDY    70  57  64 NE5       30.04R
SALISBURY      MOCLDY    66  57  72 E3        30.04R
OCEAN CITY     MOCLDY    64  54  69 S3        30.04R
WALLOPS ISLAND PTCLDY    67  57  70 S3        30.05R
ACCOMACK*      CLOUDY    63  55  77 CALM      30.04R
$$

NCZ012>017-030>032-190100-
EASTERN NORTH CAROLINA

CITY           SKY/WX    TMP DP  RH WIND       PRES   REMARKS
ELIZABETH CITY CLEAR     67  57  70 E6        30.04R
AHOSKIE*       CLEAR     66  60  80 CALM      30.03R
EDENTON*       CLEAR     65  58  78 E3        30.03R
CURRITUCK*     CLEAR     69  54  59 E3        30.04R
KILL DEVIL HLS CLEAR     70  55  60 E6        30.02R
MANTEO         CLEAR     69  56  62 E8        30.03R
CAPE HATTERAS  CLEAR     68  57  68 NE8       30.01S
TARBORO*       CLEAR     69  63  81 E3        30.02R
GOLDSBORO      CLEAR     70  67  91 E5        29.98R
WASHINGTON     CLEAR     68  57  68 CALM      30.02R
GREENVILLE     CLEAR     70  61  73 E6        30.03R
NEW BERN       CLEAR     73  59  61 E7        30.02R
WILMINGTON     PTCLDY    74  62  66 E6        30.00R
$$

VAZ048-190100-
ELSEWHERE

CITY           SKY/WX    TMP DP  RH WIND       PRES   REMARKS
HARRISBURG PA  CLEAR     61  53  75 CALM      30.05R
BALTIMORE      PTCLDY    64  60  87 CALM      30.04R
ANNAPOLIS      CLOUDY    67  63  87 CALM      30.04R
ANDREWS AFB    CLEAR     65  62  87 NE2       30.04R
WILMINGTON DE  CLEAR     66  57  72 SW5       30.04R
PHILADELPHIA   PTCLDY    69  55  60 SW8       30.04R
WILDWOOD NJ*   CLOUDY    66  54  63 CALM      30.05R
ATLANTIC CITY  CLOUDY    67  56  67 CALM      30.04R
HENDERSON NC   CLOUDY    68  63  83 CALM      30.02R
GREENSBORO     CLOUDY    71  63  75 NE3       30.01R
ROCKY MOUNT    CLEAR     66  62  87 CALM      30.01R
FAYETTEVILLE   CLEAR     73  64  73 E3        29.98R
CHARLOTTE      MOCLDY    73  64  73 N5        30.00R
$$

VAZ100-190100-
MARINE

STATION/POSITION TIME  TEMP    WIND        PRES    WAVE   SWELL
                       AIR SEA DIR/SP/G            HT/PER HT/PER
                 (UTC) (F)     (DEG/KT/KT) (MB)    (FT/S) (FT/S)
44066 TX TWR #4  0000   69 74  350/  8/ 10 1016.3R   3/11   3/11
CAPE MAY NJ      0000   69 76  180/  4/  6 1016.6R
LEWES DE         0000   70 73  230/  3/  3 1016.8R
15NM E FENWICK I 0000   70 73              1017.2R   3/11
OCEAN-CITY-INLET 0000   70 72  180/  4/  6 1016.8R
WACHAPREAGUE VA  0000   69 75  140/  3/  4 1017.1R
THOMAS POINT MD  0000   70 74  110/  7/  8 1018.1R
GOOSES REEF MD   0000   72     210/  8/ 10 1017.0R
COVE POINT MD    0000   70     210/  5/  6 1016.5R
SOLOMONS ISLAND  0000      76                N/A
BISHOPS HEAD MD  0000   72 75  180/  7/  8 1016.2S
PINEY POINT MD   0000          200/  7/  8   N/A
POTOMAC MD       0000   72     210/  8/ 10 1016.2R
CAMBRIDGE MD     0000   69 74   50/  7/  8 1016.7R
LEWISETTA VA     0000   70 74  200/  4/  6 1016.6R
RAPPAHANNOCK LGT 0000          120/  8/  9 1017.6R
STINGRAY PT      0000   72     150/ 10/ 12   N/A
YORK RVR RNG VA  0000   72     150/ 11/ 13 1016.4R
YORKTOWN VA      0000   71 76  150/  5/  7 1016.6R
JAMESTOWN VA     0000   70     120/  8/ 10   N/A
DOMINION TERM VA 0000   72     120/ 10/ 15 1016.8R
KIPTOPEKE VA     0000      79  130/  5/  6   N/A
CHES BAY BRIDGE  0000   71 75  110/  6/ 10 1016.6R
CAPE HENRY VA    0000   70     120/  6/  8 1015.8R
CHESAPEAKE LGHT  2300   70     100/  8/  9 1017.4R
WILLOUBY STN VA  0000   71      90/  6/  8 1015.6R
S CRANEY ISL VA  0000           90/  8/ 11 1016.7R
CAPE HENRY BUOY  0000      76                N/A     3/11   2/11
1ST LANDING BUOY 0000   71     130/ 10/ 12 1016.6R
CAPE CHARLES BUO 0000      75                N/A     3/12   3/12
OFFSHORE WE BUOY 0000      74                N/A     3/13   3/13
64NM E OF VA BCH 0000   72 77   40/ 10/ 12 1016.5R   4/12   3/12
DUCK PIER NC     0000   71 75   60/ 11/ 13 1016.1R
44100 DUCK FRF   0000      75                N/A     4/12   2/12
44056 DUCK FRF   0000                        N/A     3/12   2/12
OREGON INLET NC  0000   71 74   40/ 10/ 14 1016.6R
HATTERAS NC      0000   72 77   50/ 10/ 14 1016.8R
DIAMOND SHLS NC  0000   72      20/ 17/ 21 1015.7R   5/ 6   3/11
CAPE LOOKOUT NC  2300   75      50/ 17/ 18 1015.6R
$$


USA.gov is the U.S. government's official web portal to all federal, state and local government web resources and services.